VA5EVR-13 Weather Reports


time (UTC)temp
C
wind
direction
speed
KPH
gust
KPH
rain 1hr
cm
rain 24hr
cm
rain mn
cm
humidity
%
barometer
mb
20260504033012 7 22 24.1 24.1 0.00 0.00 0.00 64 88.8
20260504032012 7 22 14.5 14.5 0.00 0.00 0.00 63 88.8
20260504031012 8 22 17.7 17.7 0.00 0.00 0.00 62 88.8
20260504030012 8 22 16.1 16.1 0.00 0.00 0.00 61 88.8
20260504025011 8 22 25.7 25.7 0.00 0.00 0.00 60 88.8
20260504024012 10 22 17.7 17.7 0.00 0.00 0.00 59 88.8
20260504023013 10 45 32.2 32.2 0.00 0.00 0.00 56 88.8
20260504022012 11 22 38.6 38.6 0.00 0.00 0.00 50 88.8
20260504021012 11 0 25.7 25.7 0.00 0.00 0.00 48 88.8
20260504020012 11 0 29.0 29.0 0.00 0.00 0.00 48 88.8
20260504015011 12 22 27.4 27.4 0.00 0.00 0.00 47 88.8
20260504014012 12 338 29.0 29.0 0.00 0.00 0.00 50 88.8
20260504013012 12 315 29.0 29.0 0.00 0.00 0.00 50 88.8
20260504012011 12 315 27.4 27.4 0.00 0.00 0.00 50 88.8
20260504011012 12 315 41.8 41.8 0.00 0.00 0.00 47 88.8
20260504010011 13 338 40.2 40.2 0.00 0.00 0.00 44 88.8
20260504005011 13 0 25.7 25.7 0.00 0.00 0.00 43 88.8
20260504004012 13 0 35.4 35.4 0.00 0.00 0.00 44 88.8
20260504003012 14 338 33.8 33.8 0.00 0.00 0.00 43 88.8
20260504002012 15 0 40.2 40.2 0.00 0.00 0.00 41 88.8
20260504001011 15 315 32.2 32.2 0.00 0.00 0.00 41 88.8
20260504000012 15 315 40.2 40.2 0.00 0.00 0.00 41 88.8
20260503235011 15 292 30.6 30.6 0.00 0.00 0.00 41 88.8
20260503234011 16 338 41.8 41.8 0.00 0.00 0.00 40 88.8
20260503233012 16 22 33.8 33.8 0.00 0.00 0.00 38 88.8
20260503232011 16 315 43.5 43.5 0.00 0.00 0.00 37 88.8
20260503231011 16 0 46.7 46.7 0.00 0.00 0.00 37 88.8
20260503230012 17 315 45.1 45.1 0.00 0.00 0.00 36 88.8
20260503225011 17 22 54.7 54.7 0.00 0.00 0.00 37 88.8
20260503224012 18 315 45.1 45.1 0.00 0.00 0.00 38 88.8
20260503223012 18 0 48.3 48.3 0.00 0.00 0.00 38 88.8
20260503222012 18 338 49.9 49.9 0.00 0.00 0.00 37 88.8
20260503221011 18 22 46.7 46.7 0.00 0.00 0.00 36 88.8
20260503220012 19 338 43.5 43.5 0.00 0.00 0.00 35 88.8
20260503215011 19 0 43.5 43.5 0.00 0.00 0.00 36 88.8
20260503214012 19 338 48.3 48.3 0.00 0.00 0.00 39 88.8
20260503213012 20 22 35.4 35.4 0.00 0.00 0.00 39 88.8
20260503212011 20 315 43.5 43.5 0.00 0.00 0.00 41 88.8
20260503211011 20 315 41.8 41.8 0.00 0.00 0.00 41 88.8
20260503210012 21 292 40.2 40.2 0.00 0.00 0.00 40 88.8
20260503205012 21 338 33.8 33.8 0.00 0.00 0.00 40 88.8
20260503204011 21 338 40.2 40.2 0.00 0.00 0.00 39 88.8
20260503203012 21 292 48.3 48.3 0.00 0.00 0.00 39 88.8
20260503202011 21 270 37.0 37.0 0.00 0.00 0.00 39 88.8
20260503201012 22 292 35.4 35.4 0.00 0.00 0.00 37 88.8
20260503200012 22 292 35.4 35.4 0.00 0.00 0.00 37 88.8
20260503195011 21 270 32.2 32.2 0.00 0.00 0.00 38 88.8
20260503194012 21 292 46.7 46.7 0.00 0.00 0.00 37 88.8
20260503193011 21 292 43.5 43.5 0.00 0.00 0.00 38 88.8
20260503192012 21 292 45.1 45.1 0.00 0.00 0.00 38 88.8
20260503191011 21 292 35.4 35.4 0.00 0.00 0.00 38 88.8
20260503190012 21 292 37.0 37.0 0.00 0.00 0.00 38 88.8
20260503185012 21 292 41.8 41.8 0.00 0.00 0.00 37 88.8
20260503184011 21 270 27.4 27.4 0.00 0.00 0.00 37 88.8
20260503183012 20 315 35.4 35.4 0.00 0.00 0.00 38 88.8
20260503182012 20 292 38.6 38.6 0.00 0.00 0.00 39 88.8
20260503181011 20 292 41.8 41.8 0.00 0.00 0.00 39 88.8
20260503180012 20 315 38.6 38.6 0.00 0.00 0.00 40 88.8
20260503175012 20 292 33.8 33.8 0.00 0.00 0.00 40 88.8
20260503174011 20 292 27.4 27.4 0.00 0.00 0.00 41 88.8
20260503173012 19 292 33.8 33.8 0.00 0.00 0.00 41 88.8
20260503172012 19 292 20.9 20.9 0.00 0.00 0.00 42 88.8
20260503171011 18 270 19.3 19.3 0.00 0.00 0.00 42 88.8
20260503151011 15 270 25.7 25.7 0.00 0.00 0.00 57 88.8
20260503131012 12 225 19.3 19.3 0.00 0.00 0.00 60 88.8
20260503081011 6 270 11.3 11.3 0.00 0.00 0.00 55 88.8
20260503072011 7 270 11.3 11.3 0.00 0.00 0.00 57 88.8
20260503071011 7 270 9.7 9.7 0.00 0.00 0.00 58 88.8
20260503055011 7 270 9.7 9.7 0.00 0.00 0.00 52 88.8
20260503054011 7 270 8.0 8.0 0.00 0.00 0.00 52 88.8
20260503053012 6 270 11.3 11.3 0.00 0.00 0.00 52 88.8
20260503052012 4 270 8.0 8.0 0.00 0.00 0.00 53 88.8
20260503051012 3 270 6.4 6.4 0.00 0.00 0.00 52 88.8
20260503050012 3 270 6.4 6.4 0.00 0.00 0.00 52 88.8
20260503045012 3 270 6.4 6.4 0.00 0.00 0.00 57 88.8
20260503044012 3 270 0.0 0.0 0.00 0.00 0.00 54 88.8
20260503043012 3 270 8.0 8.0 0.00 0.00 0.00 52 88.8
20260503042012 3 248 0.0 0.0 0.00 0.00 0.00 64 88.8
20260503041011 4 270 0.0 0.0 0.00 0.00 0.00 61 88.8
20260503040012 4 270 0.0 0.0 0.00 0.00 0.00 60 88.8
20260503035012 5 248 1.6 1.6 0.00 0.00 0.00 56 88.8
20260503034010 5 112 0.0 0.0 0.00 0.00 0.00 56 88.8